EW9154 Weather Reports


time (UTC)temp
C
wind
direction
speed
KPH
gust
KPH
rain 1hr
cm
rain 24hr
cm
rain mn
cm
humidity
%
barometer
mb
20260903220135 31 194 4.8 22.5 0.00 0.05 0.05 57 1021.6
20260903215609 31 128 4.8 27.4 0.00 0.05 0.05 58 1021.5
20260903215044 31 183 1.6 24.1 0.00 0.05 0.05 56 1021.7
20260903214547 31 123 1.6 19.3 0.00 0.05 0.05 57 1021.8
20260903214029 31 207 1.6 12.9 0.00 0.05 0.05 56 1021.7
20260903213531 32 189 0.0 12.9 0.00 0.05 0.05 56 1021.7
20260903213009 32 118 1.6 9.7 0.00 0.05 0.05 57 1021.9
20260903212514 31 127 3.2 16.1 0.00 0.05 0.05 57 1021.9
20260903212221 31 144 3.2 19.3 0.00 0.05 0.05 58 1022.0
20260903211440 31 182 3.2 19.3 0.00 0.05 0.05 57 1022.0
20260903210850 31 136 3.2 24.1 0.00 0.05 0.05 57 1022.0
20260903210601 31 209 3.2 24.1 0.00 0.05 0.05 57 1022.0
20260903205805 31 128 0.0 8.0 0.00 0.05 0.05 58 1021.9
20260903205243 31 131 0.0 11.3 0.00 0.05 0.05 60 1022.0
20260903204744 31 81 0.0 11.3 0.00 0.05 0.05 60 1022.1
20260903204243 31 168 0.0 3.2 0.00 0.05 0.05 59 1022.5
20260903203732 30 185 0.0 3.2 0.00 0.05 0.05 59 1022.5
20260903203228 30 185 0.0 14.5 0.00 0.05 0.05 59 1022.6
20260903202728 30 230 0.0 14.5 0.00 0.05 0.05 59 1022.4
20260903202429 30 98 1.6 14.5 0.00 0.05 0.05 59 1022.6
20260903201636 31 175 1.6 17.7 0.00 0.05 0.05 59 1022.6
20260903201107 31 143 1.6 17.7 0.00 0.05 0.05 58 1022.5
20260903200818 31 196 3.2 19.3 0.00 0.05 0.05 58 1022.6
20260903200048 31 159 3.2 24.1 0.00 0.05 0.05 57 1022.6
20260903195524 32 126 1.6 24.1 0.00 0.05 0.05 55 1022.8
20260903195023 32 212 3.2 20.9 0.00 0.05 0.05 56 1022.6
20260903194458 31 131 6.4 30.6 0.00 0.05 0.05 58 1022.6
20260903194223 31 190 8.0 30.6 0.00 0.05 0.05 57 1022.9
20260903193452 31 236 9.7 29.0 0.00 0.05 0.05 57 1023.1
20260903192951 31 184 4.8 24.1 0.00 0.05 0.05 55 1023.1
20260903192451 32 153 1.6 19.3 0.00 0.05 0.05 56 1022.8
20260903191949 31 189 1.6 19.3 0.00 0.05 0.05 57 1022.8
20260903191451 31 184 1.6 20.9 0.00 0.05 0.05 57 1022.8
20260903190934 31 196 1.6 20.9 0.00 0.05 0.05 56 1022.9
20260903190439 31 185 0.0 3.2 0.00 0.05 0.05 59 1022.9
20260903185913 31 209 1.6 17.7 0.00 0.05 0.05 61 1022.9
20260903185416 30 202 1.6 17.7 0.00 0.05 0.05 60 1022.9
20260903184914 30 186 1.6 14.5 0.00 0.05 0.05 62 1023.0
20260903184412 30 271 1.6 19.3 0.03 0.05 0.05 63 1023.1
20260903183856 29 117 1.6 19.3 0.05 0.05 0.05 66 1023.0
20260903183401 29 215 0.0 6.4 0.05 0.05 0.05 69 1023.2
20260903182834 28 196 0.0 0.0 0.05 0.05 0.05 76 1023.2
20260903182312 27 180 0.0 4.8 0.05 0.05 0.05 79 1023.2
20260903181747 27 182 0.0 1.6 0.05 0.05 0.05 80 1023.2
20260903181244 26 225 0.0 14.5 0.05 0.05 0.05 84 1023.2
20260903180718 26 186 0.0 1.6 0.05 0.05 0.05 85 1023.2
20260903180211 25 152 0.0 1.6 0.05 0.05 0.05 86 1023.3
20260903175644 25 123 0.0 0.0 0.05 0.05 0.05 85 1023.4
20260903175116 25 123 0.0 0.0 0.05 0.05 0.05 84 1023.6
20260903174615 25 123 0.0 0.0 0.03 0.03 0.03 84 1023.5
20260903174049 25 123 0.0 0.0 0.00 0.00 0.00 84 1023.3
20260903173530 25 123 0.0 0.0 0.00 0.00 0.00 82 1023.0
20260903173007 26 107 0.0 0.0 0.00 0.00 0.00 82 1023.3
20260903172710 26 105 0.0 0.0 0.00 0.00 0.00 83 1023.4
20260903171937 26 108 0.0 0.0 0.00 0.00 0.00 83 1023.5
20260903171704 25 144 0.0 0.0 0.00 0.00 0.00 85 1023.5
20260903170930 25 163 0.0 1.6 0.00 0.00 0.00 85 1023.7
20260903170410 25 227 0.0 0.0 0.00 0.00 0.00 83 1023.9
20260903165831 25 107 0.0 0.0 0.00 0.00 0.00 82 1024.0
20260903165313 25 113 0.0 0.0 0.00 0.00 0.00 80 1024.1
20260903164817 25 127 0.0 0.0 0.00 0.00 0.00 80 1024.2
20260903164310 26 128 0.0 0.0 0.00 0.00 0.00 79 1024.1
20260903163815 26 128 0.0 0.0 0.00 0.00 0.00 77 1023.9
20260903163301 26 202 0.0 0.0 0.00 0.00 0.00 76 1024.1
20260903162759 26 202 0.0 0.0 0.00 0.00 0.00 76 1024.1
20260903162253 26 159 0.0 0.0 0.00 0.00 0.00 75 1024.0
20260903162000 26 159 0.0 0.0 0.00 0.00 0.00 75 1023.9
20260903161222 26 175 0.0 6.4 0.00 0.00 0.00 74 1023.9
20260903160718 26 194 0.0 1.6 0.00 0.00 0.00 74 1024.1
20260903160152 25 172 0.0 11.3 0.00 0.00 0.00 76 1024.1
20260903155911 25 195 0.0 3.2 0.00 0.00 0.00 78 1024.0
20260903155115 25 198 0.0 3.2 0.00 0.00 0.00 79 1024.1
20260903155047 25 88 0.0 0.0 0.00 0.00 0.00 81 1024.0
20260903154043 25 88 0.0 0.0 0.00 0.00 0.00 82 1023.9
20260903153541 24 84 0.0 0.0 0.00 0.00 0.00 83 1024.0
20260903153036 24 101 0.0 0.0 0.00 0.00 0.00 82 1023.9
20260903152518 24 101 0.0 0.0 0.00 0.00 0.00 82 1023.8
20260903152248 24 111 0.0 0.0 0.00 0.00 0.00 81 1024.0
20260903151448 24 98 0.0 0.0 0.00 0.00 0.00 79 1024.1
20260903150944 25 140 0.0 0.0 0.00 0.00 0.00 78 1024.1
20260903150425 25 128 0.0 1.6 0.00 0.00 0.00 78 1024.1
20260903145859 25 128 0.0 1.6 0.00 0.00 0.00 76 1023.9
20260903145321 25 227 0.0 0.0 0.00 0.00 0.00 75 1023.9
20260903144752 25 115 0.0 0.0 0.00 0.00 0.00 75 1023.8
20260903144251 25 155 0.0 0.0 0.00 0.00 0.00 74 1023.9
20260903144001 25 119 0.0 0.0 0.00 0.00 0.00 76 1023.8
20260903143725 25 119 0.0 0.0 0.00 0.00 0.00 76 1023.8
20260903142722 25 355 0.0 1.6 0.00 0.00 0.00 77 1023.7
20260903142136 24 112 0.0 1.6 0.00 0.00 0.00 78 1023.8
20260903141636 24 113 0.0 1.6 0.00 0.00 0.00 79 1023.8
20260903141609 24 165 0.0 0.0 0.00 0.00 0.00 78 1023.9
20260903140603 24 165 0.0 1.6 0.00 0.00 0.00 78 1024.0
20260903140039 24 165 0.0 1.6 0.00 0.00 0.00 79 1024.0
20260903135542 23 88 0.0 1.6 0.00 0.00 0.00 79 1024.0
20260903135000 23 151 0.0 3.2 0.00 0.00 0.00 80 1023.9
20260903134459 23 119 0.0 3.2 0.00 0.00 0.00 81 1024.0
20260903133954 23 113 0.0 0.0 0.00 0.00 0.00 81 1024.0
20260903133722 23 156 0.0 0.0 0.00 0.00 0.00 81 1024.0
20260903132927 23 159 0.0 1.6 0.00 0.00 0.00 82 1024.0
20260903132406 23 169 0.0 1.6 0.00 0.00 0.00 81 1023.9
20260903131825 23 189 0.0 1.6 0.00 0.00 0.00 82 1023.9
20260903131321 23 196 0.0 0.0 0.00 0.00 0.00 82 1024.0
20260903130821 23 242 0.0 1.6 0.00 0.00 0.00 82 1023.9
20260903130255 23 184 0.0 1.6 0.00 0.00 0.00 82 1023.9
20260903125728 23 182 0.0 4.8 0.00 0.00 0.00 82 1023.8
20260903125232 23 211 0.0 4.8 0.00 0.00 0.00 82 1023.7
20260903124641 23 172 0.0 6.4 0.00 0.00 0.00 82 1023.7
20260903124112 23 190 0.0 6.4 0.00 0.00 0.00 82 1023.7
20260903123611 23 177 0.0 3.2 0.00 0.00 0.00 82 1023.7
20260903123042 23 179 0.0 1.6 0.00 0.00 0.00 83 1023.6
20260903122541 23 187 0.0 0.0 0.00 0.00 0.00 83 1023.1
20260903122021 23 187 0.0 0.0 0.00 0.00 0.00 83 1023.0
20260903121518 23 188 0.0 11.3 0.00 0.00 0.00 83 1023.0
20260903121014 23 185 0.0 11.3 0.00 0.00 0.00 83 1023.2
20260903120743 23 203 1.6 20.9 0.00 0.00 0.00 83 1023.1
20260903120446 23 178 1.6 20.9 0.00 0.00 0.00 83 1023.3
20260903115442 23 226 0.0 11.3 0.00 0.00 0.00 83 1023.4
20260903114918 23 209 0.0 9.7 0.00 0.00 0.00 84 1023.4
20260903114417 23 235 1.6 17.7 0.00 0.00 0.00 85 1023.7
20260903113851 23 200 1.6 17.7 0.00 0.00 0.00 85 1023.7
20260903113327 23 213 3.2 22.5 0.00 0.00 0.00 85 1024.1
20260903112759 23 236 1.6 22.5 0.00 0.00 0.00 85 1024.4
20260903112246 23 219 0.0 11.3 0.00 0.00 0.00 87 1024.3
20260903111749 23 189 0.0 11.3 0.00 0.00 0.00 88 1024.3
20260903111222 23 199 0.0 1.6 0.00 0.00 0.00 89 1024.2
20260903110951 23 209 0.0 0.0 0.00 0.00 0.00 89 1024.1
20260903110156 23 228 0.0 0.0 0.00 0.00 0.00 89 1024.0
20260903105652 23 234 0.0 1.6 0.00 0.00 0.00 89 1023.9
20260903105402 23 186 0.0 1.6 0.00 0.00 0.00 89 1023.9
20260903104614 23 189 0.0 4.8 0.00 0.00 0.00 89 1024.0
20260903104341 23 180 0.0 4.8 0.00 0.00 0.00 89 1024.1
20260903103612 23 193 0.0 9.7 0.00 0.00 0.00 89 1024.1
20260903103109 23 201 0.0 9.7 0.00 0.00 0.00 89 1024.1
20260903102609 23 224 0.0 12.9 0.00 0.00 0.00 90 1024.3
20260903102056 23 148 0.0 12.9 0.00 0.00 0.00 90 1024.3
20260903101553 22 195 0.0 1.6 0.00 0.00 0.00 90 1024.0
20260903101056 22 197 0.0 1.6 0.00 0.00 0.00 90 1023.8
20260903100554 22 207 0.0 0.0 0.00 0.00 0.00 90 1023.7
20260903100054 22 237 0.0 0.0 0.00 0.00 0.00 90 1023.7
20260903095544 22 211 0.0 0.0 0.00 0.00 0.00 90 1023.8
20260903095045 22 192 0.0 1.6 0.00 0.00 0.00 90 1023.9
20260903094534 22 184 0.0 1.6 0.00 0.00 0.00 91 1024.2
20260903093955 22 175 0.0 1.6 0.00 0.00 0.00 91 1024.2
20260903093442 22 193 0.0 0.0 0.00 0.00 0.00 91 1024.1
20260903092942 22 187 0.0 0.0 0.00 0.00 0.00 91 1024.0
20260903092440 22 109 0.0 0.0 0.00 0.00 0.00 91 1023.9
20260903091925 22 65 0.0 0.0 0.00 0.00 0.00 91 1023.9
20260903091409 22 65 0.0 0.0 0.00 0.00 0.00 91 1023.9
20260903090858 22 65 0.0 0.0 0.00 0.00 0.00 91 1023.8
20260903090632 22 65 0.0 0.0 0.00 0.00 0.00 90 1023.7
20260903085833 22 65 0.0 0.0 0.00 0.00 0.00 90 1023.7
20260903085318 22 65 0.0 0.0 0.00 0.00 0.00 90 1023.7
20260903084758 22 65 0.0 0.0 0.00 0.00 0.00 90 1023.6
20260903084244 22 63 0.0 0.0 0.00 0.00 0.00 90 1023.8
20260903084239 22 63 0.0 0.0 0.00 0.00 0.00 90 1023.7
20260903083218 22 63 0.0 0.0 0.00 0.00 0.00 90 1023.8
20260903082658 22 59 0.0 0.0 0.00 0.00 0.00 90 1023.7
20260903082143 22 96 0.0 0.0 0.00 0.00 0.00 90 1023.9
20260903081639 22 96 0.0 0.0 0.00 0.00 0.00 90 1023.9
20260903081140 23 96 0.0 0.0 0.00 0.00 0.00 90 1023.9
20260903080603 23 96 0.0 0.0 0.00 0.00 0.00 89 1023.9
20260903080039 23 96 0.0 0.0 0.00 0.00 0.00 89 1023.9
20260903075519 23 96 0.0 0.0 0.00 0.00 0.00 89 1024.0
20260903075225 23 96 0.0 0.0 0.00 0.00 0.00 89 1023.9
20260903074426 23 95 0.0 0.0 0.00 0.00 0.00 89 1023.9
20260903073915 23 95 0.0 0.0 0.00 0.00 0.00 88 1024.0
20260903073411 23 95 0.0 0.0 0.00 0.00 0.00 88 1024.0
20260903072846 23 95 0.0 0.0 0.00 0.00 0.00 88 1024.1
20260903072319 23 96 0.0 0.0 0.00 0.00 0.00 88 1024.2
20260903071755 23 78 0.0 0.0 0.00 0.00 0.00 88 1024.2
20260903071227 23 82 0.0 0.0 0.00 0.03 0.00 88 1024.3
20260903070713 23 76 0.0 0.0 0.00 0.05 0.00 88 1024.2
20260903070147 23 74 0.0 0.0 0.00 0.08 0.00 88 1024.2
20260903065622 23 74 0.0 0.0 0.00 0.10 0.00 88 1024.1
20260903065056 23 72 0.0 0.0 0.00 0.10 0.00 88 1024.2
20260903064527 23 65 0.0 0.0 0.00 0.13 0.00 88 1024.3
20260903064002 23 65 0.0 0.0 0.00 0.13 0.00 87 1024.4
20260903063503 23 65 0.0 0.0 0.00 0.13 0.00 87 1024.4
20260903062940 23 65 0.0 0.0 0.00 0.15 0.00 87 1024.3
20260903062411 23 65 0.0 0.0 0.00 0.15 0.00 87 1024.4
20260903061911 23 65 0.0 0.0 0.00 0.15 0.00 87 1024.4
20260903061343 24 65 0.0 0.0 0.00 0.15 0.00 87 1024.4
20260903060818 24 65 0.0 0.0 0.00 0.15 0.00 87 1024.4
20260903060555 24 65 0.0 0.0 0.00 0.15 0.00 87 1024.4
20260903055754 24 65 0.0 0.0 0.00 0.15 0.00 86 1024.3
20260903055250 24 63 0.0 0.0 0.00 0.15 0.00 86 1024.4
20260903054725 24 136 0.0 0.0 0.00 0.15 0.00 86 1024.5
20260903054224 24 198 0.0 0.0 0.00 0.15 0.00 86 1024.5
20260903053655 24 200 0.0 0.0 0.00 0.15 0.00 86 1024.4
20260903053147 24 222 0.0 0.0 0.00 0.15 0.00 85 1024.4
20260903052627 24 222 0.0 0.0 0.00 0.15 0.00 85 1024.4
20260903052400 24 221 0.0 0.0 0.00 0.15 0.00 84 1024.4
20260903052125 24 222 0.0 0.0 0.00 0.15 0.00 85 1024.4
20260903051057 25 221 0.0 0.0 0.00 0.15 0.00 84 1024.4
20260903050554 25 221 0.0 0.0 0.00 0.15 0.00 84 1024.4
20260903050325 25 221 0.0 0.0 0.00 0.15 0.00 83 1024.5
20260903045825 25 221 0.0 0.0 0.00 0.15 0.15 83 1024.5
20260903045049 25 221 0.0 0.0 0.00 0.15 0.15 82 1024.5
20260903044547 25 221 0.0 0.0 0.00 0.15 0.15 82 1024.6
20260903044022 25 221 0.0 0.0 0.00 0.15 0.15 82 1024.5
20260903043728 25 221 0.0 0.0 0.00 0.15 0.15 81 1024.5
20260903042948 25 221 0.0 0.0 0.00 0.15 0.15 81 1024.6
20260903042444 25 221 0.0 0.0 0.00 0.15 0.15 81 1024.8
20260903042211 25 221 0.0 0.0 0.00 0.15 0.15 80 1024.8
20260903041413 25 221 0.0 0.0 0.00 0.15 0.15 80 1024.8
20260903040911 25 224 0.0 0.0 0.00 0.15 0.15 80 1024.8
20260903040409 25 224 0.0 0.0 0.00 0.15 0.15 79 1024.8
20260903035907 25 224 0.0 0.0 0.00 0.15 0.15 79 1024.9
20260903035401 25 224 0.0 0.0 0.00 0.15 0.15 78 1024.9
20260903034859 25 224 0.0 0.0 0.00 0.15 0.15 78 1024.8
20260903034342 26 225 0.0 0.0 0.00 0.15 0.15 77 1024.9
20260903033838 26 225 0.0 0.0 0.00 0.15 0.15 77 1024.9
20260903033333 26 225 0.0 0.0 0.00 0.15 0.15 77 1024.9
20260903032826 26 224 0.0 0.0 0.00 0.15 0.15 77 1024.9
20260903032306 26 224 0.0 0.0 0.00 0.15 0.15 76 1024.9
20260903031806 26 221 0.0 0.0 0.00 0.15 0.15 76 1024.9
20260903031303 26 221 0.0 0.0 0.00 0.15 0.15 75 1024.9
20260903031035 26 221 0.0 0.0 0.00 0.15 0.15 75 1024.9
20260903030244 26 221 0.0 0.0 0.00 0.15 0.15 74 1025.0
20260903025748 26 221 0.0 0.0 0.00 0.15 0.15 74 1024.9
20260903025235 26 221 0.0 0.0 0.00 0.15 0.15 73 1024.9
20260903024738 27 221 0.0 0.0 0.00 0.15 0.15 72 1024.9
20260903024212 27 224 0.0 0.0 0.00 0.15 0.15 71 1024.9
20260903023928 27 224 0.0 0.0 0.00 0.15 0.15 70 1024.9
20260903023202 27 224 0.0 0.0 0.00 0.15 0.15 70 1024.8
20260903022650 27 224 0.0 0.0 0.00 0.15 0.15 69 1024.8
20260903022352 27 224 0.0 0.0 0.00 0.15 0.15 69 1024.8
20260903021618 27 224 0.0 0.0 0.00 0.15 0.15 68 1024.8
20260903021115 27 224 0.0 0.0 0.00 0.15 0.15 68 1024.8
20260903020614 27 224 0.0 0.0 0.00 0.15 0.15 67 1024.9
20260903020048 27 224 0.0 0.0 0.00 0.15 0.15 67 1024.8
20260903015548 27 224 0.0 0.0 0.00 0.15 0.15 67 1024.8
20260903015051 27 224 0.0 0.0 0.00 0.15 0.15 67 1024.8
20260903014753 28 224 0.0 0.0 0.00 0.15 0.15 66 1024.8
20260903014021 28 224 0.0 0.0 0.00 0.15 0.15 65 1024.6
20260903013456 28 224 0.0 0.0 0.00 0.15 0.15 65 1024.6
20260903012935 28 224 0.0 0.0 0.00 0.15 0.15 64 1024.5
20260903012706 28 224 0.0 0.0 0.00 0.15 0.15 64 1024.5
20260903011932 28 224 0.0 0.0 0.00 0.15 0.15 64 1024.4
20260903011431 28 224 0.0 0.0 0.00 0.15 0.15 64 1024.3
20260903010905 28 224 0.0 0.0 0.00 0.15 0.15 64 1024.4
20260903010337 28 224 0.0 0.0 0.00 0.15 0.15 63 1024.3
20260903005835 28 224 0.0 0.0 0.00 0.15 0.15 63 1024.2
20260903005309 28 224 0.0 0.0 0.00 0.15 0.15 63 1024.2
20260903004741 28 224 0.0 0.0 0.00 0.15 0.15 63 1024.1
20260903004240 29 223 0.0 0.0 0.00 0.15 0.15 62 1024.2
20260903003941 29 223 0.0 0.0 0.00 0.15 0.15 61 1024.1
20260903003440 29 223 0.0 0.0 0.00 0.15 0.15 61 1024.2
20260903002641 30 223 0.0 0.0 0.00 0.15 0.15 60 1024.2
20260903002133 30 223 0.0 0.0 0.00 0.15 0.15 60 1024.2
20260903001605 30 223 0.0 0.0 0.00 0.15 0.15 59 1024.2
20260903001334 30 223 0.0 0.0 0.00 0.15 0.15 59 1024.3
20260903001038 30 223 0.0 0.0 0.00 0.15 0.15 59 1024.2
20260903000034 30 223 0.0 0.0 0.00 0.15 0.15 58 1024.2
20260902235505 30 223 0.0 0.0 0.00 0.15 0.15 58 1024.3
20260902234955 30 223 0.0 0.0 0.00 0.15 0.15 57 1024.3
20260902234451 31 223 0.0 0.0 0.00 0.15 0.15 56 1024.3
20260902233928 31 223 0.0 0.0 0.00 0.15 0.15 56 1024.2
20260902233631 31 223 0.0 0.0 0.00 0.15 0.15 55 1024.3
20260902232858 31 223 0.0 0.0 0.00 0.15 0.15 55 1024.4
20260902232355 31 223 0.0 0.0 0.00 0.15 0.15 54 1024.3
20260902231900 31 223 0.0 0.0 0.00 0.15 0.15 54 1024.4
20260902231331 32 223 0.0 0.0 0.00 0.15 0.15 52 1024.3
20260902230830 32 223 0.0 0.0 0.00 0.15 0.15 51 1024.4
20260902230304 32 223 0.0 0.0 0.00 0.15 0.15 51 1024.4
20260902225736 33 223 0.0 0.0 0.00 0.15 0.15 51 1024.4
20260902225502 33 223 0.0 0.0 0.00 0.15 0.15 50 1024.3
20260902224951 33 223 0.0 0.0 0.00 0.15 0.15 51 1024.3
20260902224218 33 223 0.0 0.0 0.00 0.15 0.15 50 1024.4
20260902223650 33 223 0.0 0.0 0.00 0.15 0.15 51 1024.4
20260902223124 33 224 0.0 0.0 0.00 0.15 0.15 51 1024.4
20260902222555 33 223 0.0 0.0 0.00 0.15 0.15 50 1024.5
20260902222051 33 223 0.0 0.0 0.00 0.15 0.15 50 1024.4
20260902221038 33 229 0.0 0.0 0.00 0.15 0.15 49 1024.4
20260902220807 33 229 0.0 0.0 0.00 0.15 0.15 49 1024.4